Breckenridge, TX

6:29 PM CDT on March 29, 2017 (GMT -0500)
Stephens County

Weather History for KBKD - January, 2013

Change the Weather History Date:

Thursday, January 31, 2013

  Actual Average (KMWL) Record (KMWL)
Temperature  
Mean Temperature 50 °F -  
Max Temperature 68 °F 56 °F 82 °F (1997)
Min Temperature 33 °F 33 °F 27 °F (2008)
Degree Days  
Heating Degree Days 14    
Moisture  
Dew Point 18 °F    
Average Humidity 31    
Maximum Humidity 52    
Minimum Humidity 15    
Precipitation  
Precipitation 0.00 in - - ()
Sea Level Pressure  
Sea Level Pressure 30.15 in    
Wind  
Wind Speed 8 mph (SW)    
Max Wind Speed 24 mph    
Max Gust Speed 33 mph    
Visibility 10 miles    
Events      
Averages and records for this station are not official NWS values.
T = Trace of Precipitation, MM = Missing Value Source: NWS Daily Summary

Daily Weather History Graph

Daily Weather History Graph

Search for Another Location

Airport or City:

Trip Planner

Search our weather history database for the weather conditions in past years. The results will help you decide how hot, cold, wet, or windy it might be!

Date:

Astronomy

Jan. 31, 2013 Rise Set
Actual Time 7:30 AM CST 6:07 PM CST
Civil Twilight 7:04 AM CST 6:33 PM CST
Nautical Twilight 6:35 AM CST 7:03 PM CST
Astronomical Twilight 6:06 AM CST 7:32 PM CST
Moon 10:51 PM CST (1/31) 9:49 AM CST (1/31)
Length of Visible Light 11h 28m
Length of Day
10h 36m
Waning Gibbous, 79% of the Moon is Illuminated
Jan 31
Waning Gibbous
Feb 3
Last Quarter
Feb 10
New
Feb 17
First Quarter
Feb 25
Full

Hourly Weather History & Observations

Time (CST) Temp. Windchill Dew Point Humidity Pressure Visibility Wind Dir Wind Speed Gust Speed Precip Events Conditions
12:15 AM 35.6 °F 31.7 °F 17.6 °F 48% 30.13 in 10.0 mi SW 4.6 mph - N/A   Clear
12:35 AM 35.6 °F 29.2 °F 17.6 °F 48% 30.13 in 10.0 mi SW 8.1 mph - N/A   Clear
12:55 AM 35.6 °F 30.7 °F 17.6 °F 48% 30.13 in 10.0 mi SSW 5.8 mph - N/A   Clear
1:15 AM 35.6 °F 29.9 °F 17.6 °F 48% 30.12 in 10.0 mi SSW 6.9 mph - N/A   Clear
1:35 AM 37.4 °F 31.4 °F 15.8 °F 41% 30.12 in 10.0 mi SSW 8.1 mph - N/A   Clear
1:55 AM 37.4 °F 34.9 °F 14.0 °F 38% 30.12 in 10.0 mi SW 3.5 mph - N/A   Clear
2:15 AM 35.6 °F 31.7 °F 15.8 °F 44% 30.12 in 10.0 mi SSW 4.6 mph - N/A   Clear
2:35 AM 33.8 °F 28.6 °F 17.6 °F 52% 30.11 in 10.0 mi South 5.8 mph - N/A   Clear
2:55 AM 37.4 °F 30.8 °F 15.8 °F 41% 30.11 in 10.0 mi South 9.2 mph - N/A   Clear
3:15 AM 35.6 °F 30.7 °F 15.8 °F 44% 30.13 in 10.0 mi SSW 5.8 mph - N/A   Clear
3:35 AM 37.4 °F 32.8 °F 14.0 °F 38% 30.13 in 10.0 mi SSW 5.8 mph - N/A   Clear
3:55 AM 37.4 °F 34.9 °F 14.0 °F 38% 30.13 in 10.0 mi SSW 3.5 mph - N/A   Clear
4:15 AM 33.8 °F 27.7 °F 17.6 °F 52% 30.12 in 10.0 mi SSE 6.9 mph - N/A   Clear
4:55 AM 33.8 °F 27.0 °F 17.6 °F 52% 30.11 in 10.0 mi SSE 8.1 mph - N/A   Clear
5:15 AM 35.6 °F 29.9 °F 17.6 °F 48% 30.11 in 10.0 mi South 6.9 mph - N/A   Clear
5:35 AM 33.8 °F 27.7 °F 17.6 °F 52% 30.11 in 10.0 mi South 6.9 mph - N/A   Clear
5:55 AM 35.6 °F 29.9 °F 17.6 °F 48% 30.11 in 10.0 mi South 6.9 mph - N/A   Clear
6:15 AM 35.6 °F 29.9 °F 14.0 °F 41% 30.11 in 10.0 mi SSW 6.9 mph - N/A   Clear
6:35 AM 35.6 °F 29.9 °F 17.6 °F 48% 30.11 in 10.0 mi South 6.9 mph - N/A   Clear
6:55 AM 35.6 °F 29.9 °F 14.0 °F 41% 30.11 in 10.0 mi SSW 6.9 mph - N/A   Clear
7:15 AM 37.4 °F 32.8 °F 14.0 °F 38% 30.13 in 10.0 mi SSW 5.8 mph - N/A   Clear
7:35 AM 37.4 °F 32.1 °F 14.0 °F 38% 30.13 in 10.0 mi SSW 6.9 mph - N/A   Clear
7:55 AM 37.4 °F 32.8 °F 14.0 °F 38% 30.13 in 10.0 mi SSW 5.8 mph - N/A   Clear
8:15 AM 39.2 °F 33.6 °F 17.6 °F 42% 30.13 in 10.0 mi SSW 8.1 mph - N/A   Clear
8:35 AM 44.6 °F 40.7 °F 14.0 °F 29% 30.14 in 10.0 mi SSW 6.9 mph - N/A   Clear
8:55 AM 46.4 °F 41.5 °F 15.8 °F 29% 30.15 in 10.0 mi SSW 10.4 mph - N/A   Clear
9:35 AM 51.8 °F - 15.8 °F 24% 30.16 in 10.0 mi SW 12.7 mph - N/A   Clear
10:35 AM 55.4 °F - 17.6 °F 23% 30.17 in 10.0 mi WSW 16.1 mph 20.7 mph N/A   Clear
10:55 AM 57.2 °F - 17.6 °F 21% 30.16 in 10.0 mi SW 12.7 mph 21.9 mph N/A   Clear
11:15 AM 59.0 °F - 17.6 °F 20% 30.16 in 10.0 mi SW 17.3 mph 26.5 mph N/A   Clear
11:35 AM 60.8 °F - 17.6 °F 19% 30.16 in 10.0 mi WSW 21.9 mph 27.6 mph N/A   Clear
11:55 AM 62.6 °F - 19.4 °F 19% 30.16 in 10.0 mi West 21.9 mph 29.9 mph N/A   Clear
12:15 PM 62.6 °F - 17.6 °F 18% 30.15 in 10.0 mi WSW 19.6 mph 28.8 mph N/A   Clear
12:35 PM 64.4 °F - 19.4 °F 18% 30.13 in 10.0 mi WSW 19.6 mph 28.8 mph N/A   Clear
12:55 PM 64.4 °F - 19.4 °F 18% 30.13 in 10.0 mi WSW 23.0 mph 32.2 mph N/A   Clear
1:15 PM 66.2 °F - 19.4 °F 17% 30.11 in 10.0 mi WSW 17.3 mph 25.3 mph N/A   Clear
1:35 PM 66.2 °F - 19.4 °F 17% 30.11 in 10.0 mi West 24.2 mph 33.4 mph N/A   Clear
1:55 PM 68.0 °F - 19.4 °F 16% 30.10 in 10.0 mi West 18.4 mph 26.5 mph N/A   Clear
2:15 PM 68.0 °F - 19.4 °F 16% 30.09 in 10.0 mi West 17.3 mph 27.6 mph N/A   Clear
2:35 PM 68.0 °F - 19.4 °F 16% 30.08 in 10.0 mi WNW 13.8 mph 23.0 mph N/A   Clear
3:15 PM 68.0 °F - 19.4 °F 16% 30.08 in 10.0 mi West 17.3 mph - N/A   Clear
3:35 PM 68.0 °F - 17.6 °F 15% 30.08 in 10.0 mi West 6.9 mph 23.0 mph N/A   Clear
3:55 PM 68.0 °F - 17.6 °F 15% 30.09 in 10.0 mi WNW 12.7 mph - N/A   Clear
4:15 PM 68.0 °F - 17.6 °F 15% 30.10 in 10.0 mi WNW 9.2 mph - N/A   Clear
4:35 PM 68.0 °F - 17.6 °F 15% 30.12 in 10.0 mi WNW 13.8 mph - N/A   Clear
4:55 PM 68.0 °F - 17.6 °F 15% 30.12 in 10.0 mi WNW 11.5 mph - N/A   Clear
5:15 PM 68.0 °F - 17.6 °F 15% 30.13 in 10.0 mi NW 11.5 mph 17.3 mph N/A   Clear
5:35 PM 66.2 °F - 17.6 °F 15% 30.13 in 10.0 mi NW 8.1 mph - N/A   Clear
5:55 PM 62.6 °F - 17.6 °F 18% 30.13 in 10.0 mi NW 6.9 mph - N/A   Clear
6:15 PM 60.8 °F - 19.4 °F 20% 30.15 in 10.0 mi NW 5.8 mph - N/A   Clear
6:35 PM 60.8 °F - 19.4 °F 20% 30.15 in 10.0 mi NW 4.6 mph - N/A   Clear
6:55 PM 59.0 °F - 21.2 °F 23% 30.17 in 10.0 mi NW 4.6 mph - N/A   Clear
7:15 PM 55.4 °F - 21.2 °F 26% 30.18 in 10.0 mi Calm Calm - N/A   Clear
7:35 PM 55.4 °F - 21.2 °F 26% 30.19 in 10.0 mi Calm Calm - N/A   Clear
7:55 PM 51.8 °F - 21.2 °F 30% 30.20 in 10.0 mi Calm Calm - N/A   Clear
8:15 PM 51.8 °F - 21.2 °F 30% 30.20 in 10.0 mi NNE 3.5 mph - N/A   Clear
8:35 PM 50.0 °F - 21.2 °F 32% 30.20 in 10.0 mi ENE 3.5 mph - N/A   Clear
9:15 PM 50.0 °F - 21.2 °F 32% 30.23 in 10.0 mi ENE 6.9 mph - N/A   Clear
9:35 PM 53.6 °F - 21.2 °F 28% 30.23 in 10.0 mi ENE 9.2 mph - N/A   Clear
9:55 PM 53.6 °F - 23.0 °F 30% 30.25 in 10.0 mi ENE 10.4 mph 19.6 mph N/A   Clear
10:15 PM 51.8 °F - 24.8 °F 35% 30.25 in 10.0 mi NE 13.8 mph 18.4 mph N/A   Clear
10:35 PM 50.0 °F - 26.6 °F 40% 30.25 in 10.0 mi ENE 6.9 mph - N/A   Clear
10:55 PM 48.2 °F - 26.6 °F 43% 30.26 in 10.0 mi ENE 6.9 mph - N/A   Clear
11:35 PM 46.4 °F 42.9 °F 28.4 °F 50% 30.29 in 10.0 mi NE 6.9 mph - N/A   Clear
11:55 PM 46.4 °F 44.3 °F 28.4 °F 50% 30.29 in 10.0 mi NE 4.6 mph - N/A   Clear